{"data":{"norad_id":56545,"intl_designator":"2023-065AU","name":"STARLINK-6086","alt_names":[],"object_type":"PAYLOAD","status":"ACTIVE","operator":null,"country":"US","launch_date":"2023-05-14","launch_site_code":"AFETR","launch_vehicle":null,"mission":null,"orbit_class":"UNKNOWN","rcs_meters":null,"size_class":null,"mass_kg":null,"dimensions":null,"purposes":["comms"],"wikipedia_slug":null,"has_3d_model":false,"image_url":null,"decayed_at":null,"tle_current":{"epoch":"2026-05-24T18:02:40.630560Z","epoch_age_seconds":95863,"freshness":"FRESH","line1":"1 56545U 23065AU  26144.75185915 -.00001059  00000+0 -28983-4 0  9999","line2":"2 56545  43.0040 154.1314 0001546 270.6663  89.4012 15.27570759168101","mean_motion":15.27570759,"eccentricity":0.0001546,"inclination_deg":43.004,"raan_deg":154.1314,"arg_perigee_deg":270.6663,"mean_anomaly_deg":89.4012,"bstar":-2.8983e-5,"rev_number":16810,"period_min":94.267318977922,"perigee_km":482.01602340919,"apogee_km":484.13751070597,"semimajor_km":6861.2137670576,"source":"CELESTRAK","updated_at":"2026-05-25T13:38:18.115472Z"}}}